Starlink 36221

operational
NORAD ID: 67215 Int'l Des: 2025-304 Owner: SPXS Country: US Constellation: starlink
LEOCIRCULAR

Über Starlink 36221

Beschreibung wird geladen...

Live-Position

3D-Globus wird geladen...

Nächste Überflüge

Höhenverlauf

Altitude vs Time

uPlot chart will show altitude changes over time

Zweizeiliger Elementsatz

1 67215C 25304Z 25352.76923611 .00722800 00000+0 98519-3 0 3523
2 67215 69.9978 31.2663 0009347 252.7345 247.7017 16.05216587 13
Epoch: 18. Dez. 2025 • Age: 71 hours

Aktueller Status

Höhe 267.0 km
Geschwindigkeit 7.75 km/s
Subsatellitenpunkt 66.88°N, 78.16°E
Startdatum 17. Dez. 2025
Alter 3 days
Typ internet

Technische Details

Klassifizierung Payload
Masse 575.00 kg
Trockenmasse 530.00 kg
Gesamtmasse 575.00 kg
Länge 0.30 m
Durchmesser 4.10 m
Spannweite 29.00 m
Form Box + pan
Hersteller SPXS
Bus-Typ Starlink V2MO
Phasenstatus In Orbit
Besitzer/Staat SPXS/US

Große Konstellationen

Loading constellations...